Regional Weather Roundup
Issued by NWS Albany, NY

Home | Current Version | Previous Version | Text Only | Print | Product List | Glossary On
Versions: 1 2 3 4 5 6 7 8 9 10 11 12 13 14 15 16 17 18 19 20 21 22 23 24 25 26 27 28 29 30 31 32 33 34 35 36 37 38 39 40 41 42 43 44 45 46 47 48 49 50
000
ASUS41 KALY 050410
RWRALY

NEW YORK STATE HOURLY WEATHER ROUNDUP
NATIONAL WEATHER SERVICE ALBANY NY
1200 AM EDT SUN JUL 05 2015

NOTE: "FAIR" INDICATES FEW OR NO CLOUDS BELOW 12,000 FEET WITH NO
SIGNIFICANT WEATHER AND/OR NO OBSTRUCTIONS TO VISIBILITY.

NYZ032-033-038>043-046>054-057>066-NYZ062>081-050500-
EAST


CITY           SKY/WX    TMP DP  RH WIND       PRES   REMARKS
ALBANY         PTCLDY    61  58  90 CALM      30.02R FOG
GLENS FALLS    MOCLDY    61  59  93 CALM      30.02R FOG
POUGHKEEPSIE   CLEAR     60  57  89 CALM      30.02R FOG
NEWBURGH       CLEAR     61  61 100 CALM      30.04R
MONTGOMERY     PTCLDY    58  57  97 CALM      30.03S FOG
WHITE PLAINS   CLEAR     63  59  87 NW5       30.02R
ISLIP          MOCLDY    65  54  67 CALM      30.00S
NEW YORK CITY  MOCLDY    71  62  73 S7        30.01R
CENTRAL PARK   MOCLDY    71  53  52 W5        30.05R
$$

NYZ005>009-017-018-044>046-055-056-050500-
CENTRAL


CITY           SKY/WX    TMP DP  RH WIND       PRES   REMARKS
FULTON         FAIR      56  53  90 CALM      30.02R
SYRACUSE       CLOUDY    63  57  81 CALM      30.02R
ROME           CLOUDY    66  60  81 SW5       30.03R
ELMIRA         FOG       62  62 100 CALM      30.04R VSB 1/4
BINGHAMTON     PTCLDY    59  58  96 SW3       30.06R FOG
MONTICELLO     CLOUDY    61  59  94 CALM      30.07R
$$

NYZ026>034-041>043-050500-
NORTH


CITY           SKY/WX    TMP DP  RH WIND       PRES   REMARKS
WATERTOWN      CLEAR     60  56  86 VRB3      30.00R
FORT DRUM      NOT AVBL
MASSENA        MOCLDY    62  59  90 SW5       29.96S
SARANAC LAKE   FOG       55  54  96 CALM      30.01R VSB 1/2
PLATTSBURGH    FOG       60  59  96 CALM      29.97R VSB 1/2
$$

NYZ001>004-010>016-019>021-050500-
WEST


CITY           SKY/WX    TMP DP  RH WIND       PRES   REMARKS
NIAGARA FALLS  CLEAR     63  58  83 S5        30.03R
BUFFALO        PTCLDY    64  55  72 SW8       30.04R SMOKE
DUNKIRK        CLEAR     61  54  77 SW7       30.06R
JAMESTOWN      CLEAR     57  50  77 SW3       30.11R
WELLSVILLE     CLEAR     57  50  77 MISG      30.11R
ROCHESTER      CLEAR     61  55  81 SW5       30.03R
PENN YAN       FOG       63  62  97 SW5       30.05R VSB 1/4
$$

             KEY
       WCI = WIND CHILL INDEX
       VSB = VISIBILITY
       HX  = HEAT INDEX
$$


USA.gov is the U.S. government's official web portal to all federal, state and local government web resources and services.